| time (UTC) | temp F | wind direction | speed knots | gust knots | rain 1hr in | rain 24hr in | rain mn in | humidity % | barometer mb |
| 20260507094501 | 60 | 333 | 6.1 | 0.0 | 0.00 | 0.00 | 0.00 | 59 | 1010.6 |
| 20260507091502 | 59 | 333 | 6.1 | 0.0 | 0.00 | 0.00 | 0.00 | 59 | 1010.6 |
| 20260507090002 | 63 | 333 | 4.3 | 0.0 | 0.00 | 0.00 | 0.00 | 59 | 1010.6 |
| 20260507084502 | 57 | 333 | 5.2 | 0.0 | 0.00 | 0.00 | 0.00 | 59 | 1010.6 |
| 20260507083002 | 48 | 333 | 6.1 | 0.0 | 0.00 | 0.00 | 0.00 | 59 | 1010.6 |
| 20260507081502 | 46 | 325 | 5.2 | 0.0 | 0.00 | 0.00 | 0.00 | 59 | 1010.6 |
| 20260507080002 | 50 | 325 | 5.2 | 0.0 | 0.00 | 0.00 | 0.00 | 59 | 1010.6 |
| 20260507074502 | 48 | 325 | 6.1 | 0.0 | 0.00 | 0.00 | 0.00 | 59 | 1010.6 |
| 20260507073002 | 47 | 325 | 6.1 | 0.0 | 0.00 | 0.00 | 0.00 | 59 | 1010.6 |
| 20260507071502 | 48 | 325 | 5.2 | 0.0 | 0.00 | 0.00 | 0.00 | 59 | 1010.6 |
| 20260507070003 | 43 | 325 | 6.1 | 0.0 | 0.00 | 0.00 | 0.00 | 59 | 1010.6 |
| 20260507064502 | 40 | 325 | 6.1 | 0.0 | 0.00 | 0.00 | 0.00 | 59 | 1010.6 |
| 20260507063002 | 41 | 316 | 5.2 | 0.0 | 0.00 | 0.00 | 0.00 | 59 | 1010.6 |
| 20260507061502 | 38 | 316 | 7.0 | 0.0 | 0.00 | 0.00 | 0.00 | 59 | 1010.6 |
| 20260507060002 | 36 | 316 | 6.1 | 0.0 | 0.00 | 0.00 | 0.00 | 59 | 1010.6 |
| 20260507054502 | 36 | 314 | 1.7 | 0.0 | 0.00 | 0.00 | 0.00 | 59 | 1010.6 |
| 20260507053003 | 33 | 314 | 2.6 | 0.0 | 0.00 | 0.00 | 0.00 | 59 | 1010.6 |
| 20260507051502 | 29 | 314 | 0.0 | 0.0 | 0.00 | 0.00 | 0.00 | 59 | 1010.6 |
| 20260507050002 | 28 | 314 | 3.5 | 0.0 | 0.00 | 0.00 | 0.00 | 59 | 1010.6 |
| 20260507044502 | 27 | 314 | 5.2 | 0.0 | 0.00 | 0.00 | 0.00 | 59 | 1010.6 |
| 20260507043002 | 27 | 314 | 5.2 | 0.0 | 0.00 | 0.00 | 0.00 | 59 | 1010.6 |
| 20260507041502 | 26 | 314 | 1.7 | 0.0 | 0.00 | 0.00 | 0.00 | 59 | 1010.6 |
| 20260507040002 | 25 | 314 | 3.5 | 0.0 | 0.00 | 0.00 | 0.00 | 59 | 1010.6 |
| 20260507034502 | 24 | 316 | 6.1 | 0.0 | 0.00 | 0.00 | 0.00 | 59 | 1010.6 |
| 20260507033001 | 24 | 316 | 6.1 | 0.0 | 0.00 | 0.00 | 0.00 | 59 | 1010.6 |
| 20260507031502 | 23 | 316 | 3.5 | 0.0 | 0.00 | 0.00 | 0.00 | 59 | 1010.6 |
| 20260507030002 | 24 | 316 | 4.3 | 0.0 | 0.00 | 0.00 | 0.00 | 59 | 1010.6 |
| 20260507024502 | 24 | 316 | 5.2 | 0.0 | 0.00 | 0.00 | 0.00 | 59 | 1010.6 |
| 20260507023002 | 23 | 310 | 4.3 | 0.0 | 0.00 | 0.00 | 0.00 | 59 | 1010.6 |
| 20260507021502 | 22 | 310 | 1.7 | 0.0 | 0.00 | 0.00 | 0.00 | 59 | 1010.6 |
| 20260507020002 | 23 | 312 | 2.6 | 0.0 | 0.00 | 0.00 | 0.00 | 59 | 1010.6 |
| 20260507014502 | 23 | 312 | 2.6 | 0.0 | 0.00 | 0.00 | 0.00 | 59 | 1010.6 |
| 20260507013002 | 23 | 312 | 3.5 | 0.0 | 0.00 | 0.00 | 0.00 | 59 | 1010.6 |
| 20260507011502 | 22 | 312 | 3.5 | 0.0 | 0.00 | 0.00 | 0.00 | 59 | 1010.6 |
| 20260507010002 | 22 | 312 | 2.6 | 0.0 | 0.00 | 0.00 | 0.00 | 59 | 1010.6 |
| 20260507004502 | 23 | 308 | 1.7 | 0.0 | 0.00 | 0.00 | 0.00 | 59 | 1010.6 |
| 20260507003002 | 24 | 308 | 5.2 | 0.0 | 0.00 | 0.00 | 0.00 | 59 | 1010.6 |
| 20260507001502 | 25 | 308 | 4.3 | 0.0 | 0.00 | 0.00 | 0.00 | 59 | 1010.6 |
| 20260507000002 | 25 | 304 | 6.1 | 0.0 | 0.00 | 0.00 | 0.00 | 59 | 1010.6 |
| 20260506234502 | 24 | 304 | 5.2 | 0.0 | 0.00 | 0.00 | 0.00 | 59 | 1010.6 |
| 20260506233001 | 24 | 304 | 3.5 | 0.0 | 0.00 | 0.00 | 0.00 | 59 | 1010.6 |
| 20260506231502 | 23 | 304 | 1.7 | 0.0 | 0.00 | 0.00 | 0.00 | 59 | 1010.6 |
| 20260506230002 | 24 | 304 | 1.7 | 0.0 | 0.00 | 0.00 | 0.00 | 59 | 1010.6 |
| 20260506224502 | 24 | 300 | 5.2 | 0.0 | 0.00 | 0.00 | 0.00 | 59 | 1010.6 |
| 20260506223002 | 24 | 300 | 6.1 | 0.0 | 0.00 | 0.00 | 0.00 | 59 | 1010.6 |
| 20260506221502 | 24 | 293 | 6.1 | 0.0 | 0.00 | 0.00 | 0.00 | 59 | 1010.6 |
| 20260506220002 | 24 | 293 | 1.7 | 0.0 | 0.00 | 0.00 | 0.00 | 59 | 1010.6 |
| 20260506214502 | 25 | 293 | 3.5 | 0.0 | 0.00 | 0.00 | 0.00 | 59 | 1010.6 |
| 20260506213002 | 24 | 293 | 1.7 | 0.0 | 0.00 | 0.00 | 0.00 | 59 | 1010.6 |
| 20260506211502 | 26 | 293 | 5.2 | 0.0 | 0.00 | 0.00 | 0.00 | 59 | 1010.6 |
| 20260506210001 | 25 | 293 | 0.9 | 0.0 | 0.00 | 0.00 | 0.00 | 59 | 1010.6 |
| 20260506204502 | 25 | 294 | 0.0 | 0.0 | 0.00 | 0.00 | 0.00 | 59 | 1010.6 |
| 20260506203002 | 25 | 294 | 0.0 | 0.0 | 0.00 | 0.00 | 0.00 | 59 | 1010.6 |
| 20260506201503 | 27 | 300 | 6.1 | 0.0 | 0.00 | 0.00 | 0.00 | 59 | 1010.6 |
| 20260506200002 | 27 | 300 | 5.2 | 0.0 | 0.00 | 0.00 | 0.00 | 59 | 1010.6 |
| 20260506194502 | 27 | 300 | 0.0 | 0.0 | 0.00 | 0.00 | 0.00 | 59 | 1010.6 |
| 20260506193002 | 28 | 300 | 5.2 | 0.0 | 0.00 | 0.00 | 0.00 | 59 | 1010.6 |
| 20260506191502 | 28 | 300 | 1.7 | 0.0 | 0.00 | 0.00 | 0.00 | 59 | 1010.6 |
| 20260506190001 | 30 | 300 | 6.1 | 0.0 | 0.00 | 0.00 | 0.00 | 59 | 1010.6 |
| 20260506184502 | 30 | 300 | 6.1 | 0.0 | 0.00 | 0.00 | 0.00 | 59 | 1010.6 |
| 20260506183002 | 32 | 300 | 5.2 | 0.0 | 0.00 | 0.00 | 0.00 | 59 | 1010.6 |
| 20260506181502 | 33 | 285 | 4.3 | 0.0 | 0.00 | 0.00 | 0.00 | 59 | 1010.6 |
| 20260506180002 | 33 | 285 | 3.5 | 0.0 | 0.00 | 0.00 | 0.00 | 59 | 1010.6 |
| 20260506174502 | 34 | 285 | 4.3 | 0.0 | 0.00 | 0.00 | 0.00 | 59 | 1010.6 |
| 20260506173001 | 35 | 285 | 4.3 | 0.0 | 0.00 | 0.00 | 0.00 | 59 | 1010.6 |
| 20260506171502 | 35 | 285 | 3.5 | 0.0 | 0.00 | 0.00 | 0.00 | 59 | 1010.6 |
| 20260506170001 | 35 | 285 | 3.5 | 0.0 | 0.00 | 0.00 | 0.00 | 59 | 1010.6 |
| 20260506164502 | 35 | 285 | 6.1 | 0.0 | 0.00 | 0.00 | 0.00 | 59 | 1010.6 |
| 20260506163002 | 36 | 269 | 7.0 | 0.0 | 0.00 | 0.00 | 0.00 | 59 | 1010.6 |
| 20260506161502 | 37 | 269 | 7.0 | 0.0 | 0.00 | 0.00 | 0.00 | 59 | 1010.6 |
| 20260506160001 | 37 | 269 | 7.0 | 0.0 | 0.00 | 0.00 | 0.00 | 59 | 1010.6 |
| 20260506154502 | 39 | 276 | 5.2 | 0.0 | 0.00 | 0.00 | 0.00 | 59 | 1010.6 |
| 20260506153001 | 35 | 276 | 6.1 | 0.0 | 0.00 | 0.00 | 0.00 | 59 | 1010.6 |
| 20260506151502 | 37 | 276 | 6.1 | 0.0 | 0.00 | 0.00 | 0.00 | 59 | 1010.6 |
| 20260506150002 | 36 | 276 | 6.1 | 0.0 | 0.00 | 0.00 | 0.00 | 59 | 1010.6 |
| 20260506144502 | 43 | 276 | 7.0 | 0.0 | 0.00 | 0.00 | 0.00 | 59 | 1010.6 |
| 20260506143001 | 41 | 289 | 6.1 | 0.0 | 0.00 | 0.00 | 0.00 | 59 | 1010.6 |
| 20260506141502 | 48 | 289 | 5.2 | 0.0 | 0.00 | 0.00 | 0.00 | 59 | 1010.6 |
| 20260506140002 | 49 | 292 | 6.1 | 0.0 | 0.00 | 0.00 | 0.00 | 59 | 1010.6 |
| 20260506134502 | 43 | 292 | 5.2 | 0.0 | 0.00 | 0.00 | 0.00 | 59 | 1010.6 |
| 20260506133002 | 42 | 292 | 3.5 | 0.0 | 0.00 | 0.00 | 0.00 | 59 | 1010.6 |
| 20260506131502 | 42 | 292 | 5.2 | 0.0 | 0.00 | 0.00 | 0.00 | 59 | 1010.6 |
| 20260506130003 | 42 | 292 | 6.1 | 0.0 | 0.00 | 0.00 | 0.00 | 59 | 1010.6 |
| 20260506124502 | 42 | 285 | 6.1 | 0.0 | 0.00 | 0.00 | 0.00 | 59 | 1010.6 |
| 20260506123003 | 45 | 285 | 5.2 | 0.0 | 0.00 | 0.00 | 0.00 | 59 | 1010.6 |
| 20260506121502 | 53 | 285 | 7.0 | 0.0 | 0.00 | 0.00 | 0.00 | 59 | 1010.6 |
| 20260506120003 | 49 | 304 | 7.8 | 0.0 | 0.00 | 0.00 | 0.00 | 59 | 1010.6 |
| 20260506114502 | 41 | 304 | 0.0 | 0.0 | 0.00 | 0.00 | 0.00 | 59 | 1010.6 |
| 20260506113002 | 61 | 304 | 7.8 | 0.0 | 0.00 | 0.00 | 0.00 | 59 | 1010.6 |
| 20260506111502 | 63 | 304 | 7.0 | 0.0 | 0.00 | 0.00 | 0.00 | 59 | 1010.6 |
| 20260506110003 | 61 | 304 | 6.1 | 0.0 | 0.00 | 0.00 | 0.00 | 59 | 1010.6 |
| 20260506104502 | 42 | 308 | 5.2 | 0.0 | 0.00 | 0.00 | 0.00 | 59 | 1010.6 |
| 20260506103002 | 51 | 308 | 6.1 | 0.0 | 0.00 | 0.00 | 0.00 | 59 | 1010.6 |
| 20260506101502 | 48 | 308 | 6.1 | 0.0 | 0.00 | 0.00 | 0.00 | 59 | 1010.6 |
| 20260506100003 | 56 | 308 | 6.1 | 0.0 | 0.00 | 0.00 | 0.00 | 59 | 1010.6 |